Tracking 20382 objects as of 24-Feb-2020
HD Live streaming from Space Station
objects crossing your sky now
Track the group of recently launched Starlink satellites

IRIDIUM 33 DEB

Track IRIDIUM 33 DEB now!
10-day predictions


NORAD ID: 34160
Int'l Code: 1997-051EP
Perigee: 665.7 km
Apogee: 733.5 km
Inclination: 86.4 °
Period: 98.6 minutes
Semi major axis: 7070 km
RCS: 0.073 m2 (small)
Launch date: September 14, 1997
Source: United States (US)
Launch site: TYURATAM MISSILE AND SPACE COMPLEX (TTMTR)

Note: This is SATELLITE DEBRIS
aabbcc
Your satellite tracking list
Your tracking list is empty




NASA's NSSDC Master Catalog

Two Line Element Set (TLE):
1 34160U 97051EP  20054.86128742 +.00003559 +00000-0 +72192-3 0  9991
2 34160 086.4095 226.1228 0047932 157.7262 202.6045 14.60229299579662
Source of the keplerian elements: AFSPC